Wind_Speed
10 10 9 8 8 9 9 10 11 12 13 14 16 18 19 20 20 21 21 20 20 21 21 21 21 22 23 23 23 23 23 23 23 22 22 23 23 24 24 24 24 25 25
10 10 10 10 10 10 10 10 11 12 13 14 16 17 19 20 21 22 22 22 22 23 23 23 23 24 24 24 24 24 24 24 24 24 24 25 25 25 26 27 27 27 27
12 11 11 11 11 12 11 12 12 13 14 15 16 17 18 20 21 21 22 23 22 22 23 22 23 24 25 25 25 25 25 25 26 26 26 27 27 27 28 28 29 29 30
13 13 13 13 13 13 13 13 13 14 14 15 16 17 19 21 21 22 22 22 22 22 21 22 23 24 24 25 26 26 27 27 27 28 28 29 29 29 30 30 31 31 32
14 14 14 14 14 14 14 15 15 15 15 16 16 17 17 19 20 21 22 22 21 22 22 22 23 24 25 25 26 26 27 28 28 28 29 30 30 31 31 31 32 32 33
15 15 15 14 14 14 14 15 15 16 16 16 16 16 16 17 18 18 19 19 20 20 21 22 23 23 24 25 25 26 26 28 29 30 31 31 31 32 32 32 32 32 33
16 15 14 14 15 15 15 15 15 15 15 15 15 15 15 15 16 16 17 18 19 20 20 21 22 23 24 25 26 26 26 27 29 29 30 30 31 31 32 33 33 33 34
16 15 15 15 15 15 15 15 15 15 15 15 15 15 15 15 16 16 17 18 19 20 21 23 23 24 26 26 27 27 27 28 28 28 29 30 31 32 33 33 34 35 36
17 16 16 15 16 15 15 15 15 15 15 15 15 15 15 16 16 16 17 19 20 21 22 23 24 25 25 26 27 27 27 27 28 29 30 31 32 33 33 34 35 36 37
18 17 17 16 16 15 15 14 15 15 15 15 15 15 16 16 17 17 18 19 21 22 23 24 24 25 25 26 26 27 28 29 30 31 31 32 33 33 34 35 36 37 38
19 19 18 18 17 16 15 15 15 16 16 16 17 17 17 18 18 19 20 21 22 22 24 24 25 25 26 27 28 29 29 30 30 31 32 32 33 34 35 36 37 38 40
20 19 19 18 17 16 16 16 16 16 16 17 18 18 18 18 19 20 21 22 22 23 24 25 25 26 27 29 30 30 30 31 32 33 33 34 35 36 37 38 39 40 40
20 19 19 18 18 18 18 18 18 18 18 18 18 18 19 20 20 22 22 22 23 24 25 26 27 28 29 29 30 31 32 33 33 34 35 36 36 37 38 39 40 41 42
20 20 20 19 19 19 19 18 18 18 18 18 18 19 20 20 21 22 23 24 24 25 26 27 28 29 30 31 31 32 33 34 34 35 36 37 38 39 39 40 40 41 41
21 20 20 19 19 19 19 19 19 19 20 19 20 20 20 21 22 22 24 24 25 26 27 28 29 30 31 31 32 34 34 35 36 36 37 37 38 39 39 39 39 40 40
21 20 20 20 20 19 19 19 19 19 20 20 20 20 20 21 21 22 23 24 26 27 28 29 30 31 32 33 33 34 34 35 36 36 37 37 37 37 38 38 39 40 40
20 20 20 20 20 19 19 18 19 20 20 20 20 20 21 22 23 24 25 26 27 28 29 30 31 32 33 33 33 33 34 35 35 36 37 37 38 38 38 38 38 39 39
19 19 19 19 19 19 18 18 18 19 19 19 20 21 22 23 24 25 26 27 29 30 30 31 32 32 32 33 34 34 35 35 36 37 38 38 37 37 38 38 38 38 37
17 17 18 18 18 18 18 18 18 18 19 20 21 22 23 24 25 26 28 29 29 30 31 31 31 32 32 33 34 34 35 36 36 37 37 36 37 37 37 37 37 37 36
17 17 17 17 17 17 17 17 18 18 20 21 22 23 24 25 26 27 28 29 30 30 31 31 32 32 33 33 34 34 35 35 36 35 35 36 36 36 35 35 35 35 34
16 16 15 15 15 16 17 18 19 20 21 23 24 25 26 27 27 28 28 29 29 29 30 31 31 32 32 33 34 34 34 34 34 34 34 34 34 34 34 34 33 33 32
15 15 15 16 17 18 19 20 21 22 23 23 24 25 26 27 27 28 28 28 28 28 29 30 31 31 31 31 32 32 33 33 33 32 32 32 32 32 32 31 31 30 29
15 16 17 18 19 19 20 21 22 22 23 24 25 26 26 26 27 27 27 28 28 28 29 29 29 30 30 31 31 32 32 32 31 31 31 31 31 30 29 28 28 27 26
16 16 18 18 19 20 20 21 22 22 23 24 25 25 25 26 26 26 27 27 27 28 29 30 31 32 32 32 32 31 31 30 30 30 29 29 29 28 27 26 25 25 25
16 17 18 18 19 19 20 21 22 22 23 24 24 24 25 25 26 26 27 28 28 29 30 31 32 32 32 32 31 30 30 29 29 28 27 27 26 25 24 24 24 24 24
17 18 18 18 19 19 20 21 22 23 23 24 24 25 25 26 26 27 27 28 29 30 31 31 31 31 31 30 30 29 28 27 27 26 26 25 24 23 23 23 23 23 24
Wind_Direction
294 287 285 285 281 280 278 273 267 264 262 259 256 252 252 252 250 249 250 252 252 253 254 256 258 258 260 259 261 264 265 265 265 266 267 267 267 267 267 269 269 268 267
299 292 286 285 282 284 282 281 277 272 267 262 260 257 254 254 254 253 251 252 254 254 255 256 258 259 261 262 263 265 265 265 266 266 268 267 268 269 268 268 270 270 269
307 299 293 291 289 283 281 281 279 276 270 266 263 258 258 258 258 255 253 253 256 256 255 256 259 261 261 262 263 265 267 267 267 268 270 270 270 272 272 270 271 271 269
305 302 295 293 287 283 280 279 278 276 273 271 269 267 264 260 259 256 253 255 255 255 256 257 259 261 262 264 265 266 267 268 269 270 272 273 271 272 272 272 273 272 271
306 305 300 294 286 282 280 278 277 275 273 272 271 272 270 263 260 259 257 257 257 257 258 258 258 262 265 266 268 269 267 267 269 272 273 273 273 273 273 275 275 274 272
308 306 302 296 292 285 283 282 277 275 273 274 274 273 271 266 262 258 257 258 258 259 260 262 264 269 269 268 270 271 270 270 272 274 274 274 274 275 276 276 275 274 273
307 305 301 295 293 288 284 283 283 280 277 276 274 275 273 267 263 259 257 258 259 260 263 265 267 270 273 273 275 277 276 275 276 275 274 275 275 275 276 276 275 275 274
306 303 299 297 296 292 289 286 283 282 280 278 274 273 273 270 265 262 263 264 263 263 265 266 268 270 274 276 277 278 278 277 278 276 274 275 274 275 275 276 276 276 275
301 302 299 296 296 295 290 286 281 282 279 275 273 273 274 273 270 268 268 268 268 269 269 270 272 274 276 277 277 278 279 279 279 279 279 278 277 277 277 279 279 278 277
295 297 298 296 296 295 291 286 283 282 280 279 278 277 278 277 275 273 272 273 273 274 275 273 273 275 276 278 279 279 279 279 280 281 281 281 280 280 281 281 281 281 281
291 292 292 294 294 295 293 291 288 285 282 280 278 278 279 279 278 277 275 276 276 276 277 276 276 276 277 279 280 281 283 284 284 283 283 281 281 282 282 282 282 282 283
290 289 290 291 291 292 292 291 290 286 281 280 279 280 280 281 281 280 281 280 279 277 277 278 278 277 278 280 282 283 284 285 285 285 284 282 283 283 283 283 284 285 285
289 289 289 290 288 288 289 289 291 290 287 285 283 282 282 282 283 283 282 283 282 280 280 281 281 280 280 282 284 285 284 285 285 286 285 285 285 285 285 285 285 285 286
287 288 288 288 288 287 288 287 287 289 289 287 285 285 285 284 283 282 281 283 283 283 282 282 284 284 284 284 285 286 286 287 287 288 288 287 286 286 287 287 287 287 287
286 286 285 285 287 287 287 287 285 286 287 287 286 287 288 287 286 284 283 284 285 284 284 284 286 287 287 287 287 288 288 288 288 289 289 288 288 289 289 290 290 290 290
285 284 285 286 288 289 289 288 285 286 287 288 289 290 289 289 288 288 287 286 286 286 286 286 286 286 288 289 289 290 290 291 291 290 290 291 291 291 292 292 292 290 290
284 284 285 285 287 287 287 286 284 287 289 289 288 288 288 288 289 289 290 288 287 287 287 286 287 289 290 290 290 291 291 291 291 291 291 292 292 293 293 293 293 293 293
283 285 287 286 285 286 286 285 286 288 289 288 288 289 289 290 290 291 290 290 290 289 288 288 290 291 291 292 292 293 293 292 292 292 293 293 293 294 294 295 295 295 295
283 285 286 285 286 283 283 285 286 287 288 289 290 291 292 293 292 292 292 292 293 292 290 291 292 292 293 293 294 294 294 294 294 293 293 293 294 295 295 296 296 296 297
280 282 284 284 284 283 285 288 290 291 291 291 291 292 293 294 294 294 294 295 295 294 294 294 294 295 295 295 295 295 295 295 295 295 295 296 296 296 297 297 298 298 298
281 282 282 285 288 289 291 293 293 293 295 296 296 295 295 296 296 295 295 296 296 295 296 296 297 297 297 297 297 297 297 297 296 296 296 297 297 298 298 299 299 299 299
282 284 286 289 290 291 292 294 296 296 297 297 298 298 298 299 299 299 299 299 298 297 297 298 298 299 299 299 299 300 300 299 299 298 299 299 300 300 300 300 300 300 300
280 284 288 291 293 294 294 295 297 298 298 299 300 301 301 301 301 301 301 302 301 300 300 299 300 300 301 301 302 302 302 301 301 300 300 301 301 301 301 302 302 302 303
284 288 291 294 296 296 297 298 299 301 302 303 303 303 303 303 303 303 303 304 304 304 303 303 303 303 302 303 303 303 303 303 303 303 302 302 303 303 303 303 304 305 305
287 290 293 295 297 299 300 301 301 302 303 304 304 304 305 305 306 306 306 306 306 306 306 306 306 306 306 306 305 305 305 305 305 305 305 305 305 304 303 304 305 306 306
289 290 292 295 298 300 301 302 302 303 304 305 305 306 306 306 307 307 307 307 308 308 308 308 308 308 307 307 306 307 307 307 307 307 308 308 307 305 304 305 306 307 308
Height
5865 5865 5864 5864 5863 5863 5862 5862 5861 5861 5861 5861 5862 5862 5863 5863 5864 5865 5865 5866 5867 5868 5868 5869 5869 5869 5870 5870 5870 5870 5870 5870 5870 5870 5869 5869 5868 5868 5867 5866 5866 5865 5864
5863 5862 5862 5861 5861 5860 5859 5859 5858 5858 5858 5857 5857 5857 5857 5858 5858 5859 5860 5861 5862 5862 5862 5862 5863 5863 5864 5864 5864 5864 5864 5864 5864 5863 5863 5862 5862 5861 5860 5859 5859 5858 5857
5861 5860 5859 5858 5858 5857 5856 5856 5855 5855 5854 5853 5853 5853 5853 5853 5853 5853 5854 5855 5855 5856 5856 5857 5857 5857 5858 5858 5858 5858 5857 5857 5857 5857 5856 5855 5854 5854 5853 5852 5851 5850 5849
5858 5857 5856 5855 5854 5853 5853 5852 5852 5851 5850 5849 5848 5848 5847 5847 5847 5847 5848 5849 5850 5850 5851 5851 5851 5851 5852 5851 5851 5851 5850 5850 5850 5849 5848 5847 5847 5846 5845 5844 5843 5842 5841
5855 5854 5852 5851 5850 5850 5849 5848 5848 5847 5846 5845 5844 5843 5842 5841 5841 5842 5842 5844 5844 5845 5845 5845 5845 5845 5845 5845 5844 5843 5843 5842 5842 5842 5841 5839 5839 5838 5837 5835 5834 5833 5831
5852 5850 5849 5848 5847 5846 5845 5844 5843 5842 5842 5841 5840 5839 5837 5836 5836 5837 5838 5838 5839 5839 5840 5840 5839 5839 5838 5838 5837 5837 5836 5835 5834 5833 5832 5831 5830 5829 5828 5826 5825 5824 5822
5848 5847 5845 5844 5843 5842 5841 5840 5839 5838 5837 5836 5835 5834 5834 5833 5833 5833 5833 5834 5834 5834 5834 5833 5833 5832 5832 5831 5830 5829 5828 5827 5826 5825 5824 5822 5821 5820 5818 5817 5815 5814 5812
5845 5843 5842 5841 5839 5837 5836 5835 5834 5833 5832 5832 5831 5830 5830 5829 5829 5829 5829 5829 5829 5828 5828 5827 5827 5826 5825 5824 5823 5822 5821 5819 5818 5816 5815 5813 5812 5811 5809 5808 5806 5804 5802
5841 5839 5838 5836 5835 5833 5832 5831 5830 5829 5828 5827 5827 5826 5826 5825 5824 5824 5824 5823 5823 5823 5822 5821 5821 5820 5819 5817 5816 5815 5813 5811 5809 5808 5806 5805 5803 5801 5800 5798 5796 5794 5792
5836 5835 5834 5832 5831 5830 5828 5827 5826 5825 5824 5823 5822 5822 5821 5820 5820 5819 5819 5818 5817 5817 5816 5815 5814 5813 5812 5810 5809 5807 5805 5803 5801 5800 5798 5796 5794 5792 5790 5788 5786 5783 5781
5831 5830 5829 5828 5826 5825 5824 5822 5821 5820 5819 5818 5818 5817 5816 5815 5814 5814 5813 5812 5811 5810 5809 5808 5807 5805 5804 5802 5801 5799 5797 5795 5793 5791 5789 5787 5784 5782 5780 5777 5775 5773 5770
5825 5825 5824 5823 5821 5820 5819 5818 5817 5815 5814 5813 5812 5811 5811 5810 5809 5808 5807 5806 5805 5803 5802 5801 5799 5797 5796 5795 5793 5791 5789 5787 5784 5782 5779 5777 5775 5772 5769 5766 5764 5761 5758
5820 5819 5818 5817 5816 5815 5814 5813 5812 5810 5809 5808 5807 5806 5805 5804 5803 5802 5800 5799 5798 5796 5795 5793 5791 5789 5788 5786 5784 5782 5780 5777 5775 5772 5769 5767 5764 5761 5758 5755 5752 5749 5745
5815 5814 5813 5812 5811 5809 5808 5807 5806 5805 5804 5803 5801 5800 5799 5798 5797 5795 5794 5792 5791 5789 5787 5786 5784 5782 5780 5777 5775 5773 5770 5767 5765 5762 5759 5756 5753 5750 5747 5743 5740 5736 5733
5809 5808 5807 5806 5805 5804 5802 5801 5800 5799 5798 5797 5796 5794 5793 5792 5790 5789 5787 5785 5784 5782 5780 5778 5776 5773 5771 5768 5765 5763 5760 5757 5754 5751 5748 5745 5742 5738 5735 5731 5728 5724 5721
5803 5802 5801 5800 5799 5798 5796 5795 5794 5793 5792 5791 5789 5788 5786 5785 5783 5782 5780 5778 5776 5774 5772 5770 5767 5765 5762 5759 5756 5753 5750 5747 5743 5740 5737 5734 5730 5727 5724 5720 5716 5712 5708
5797 5796 5795 5794 5793 5792 5790 5789 5788 5787 5786 5785 5783 5782 5780 5779 5777 5775 5773 5771 5768 5766 5764 5761 5758 5755 5752 5749 5746 5743 5740 5736 5733 5730 5727 5723 5720 5716 5712 5708 5704 5700 5697
5791 5790 5789 5788 5787 5786 5785 5784 5782 5781 5780 5778 5777 5775 5774 5772 5770 5768 5765 5763 5760 5757 5754 5751 5749 5746 5742 5739 5736 5733 5729 5726 5723 5719 5716 5712 5708 5705 5701 5697 5693 5689 5685
5785 5785 5784 5783 5781 5780 5779 5778 5777 5775 5774 5773 5771 5769 5767 5765 5762 5760 5757 5755 5752 5749 5746 5742 5739 5736 5733 5730 5726 5723 5719 5716 5712 5709 5705 5701 5698 5694 5690 5686 5682 5678 5675
5780 5779 5778 5777 5776 5774 5773 5772 5771 5770 5768 5766 5764 5762 5760 5757 5755 5752 5749 5746 5743 5740 5736 5733 5730 5727 5723 5720 5716 5713 5709 5705 5702 5698 5695 5691 5687 5684 5680 5676 5672 5668 5665
5775 5774 5773 5772 5771 5770 5769 5767 5765 5764 5762 5760 5757 5755 5752 5749 5747 5744 5741 5738 5734 5731 5728 5724 5721 5717 5714 5710 5707 5703 5699 5695 5692 5688 5685 5681 5677 5674 5670 5666 5662 5659 5655
5770 5769 5769 5768 5766 5765 5763 5761 5759 5757 5755 5752 5750 5747 5744 5741 5738 5735 5732 5729 5726 5722 5719 5716 5712 5709 5705 5701 5697 5693 5690 5686 5682 5679 5675 5671 5668 5664 5660 5657 5653 5650 5646
5765 5765 5764 5762 5761 5759 5757 5755 5753 5750 5748 5745 5742 5739 5736 5733 5730 5727 5724 5721 5717 5714 5711 5707 5703 5700 5696 5692 5688 5685 5681 5677 5673 5669 5666 5662 5659 5655 5652 5648 5645 5642 5638
5760 5760 5758 5757 5755 5753 5751 5749 5746 5744 5741 5738 5735 5732 5729 5726 5723 5720 5716 5713 5710 5706 5702 5699 5695 5691 5687 5683 5679 5676 5672 5668 5664 5661 5657 5654 5650 5647 5644 5640 5637 5634 5631
5755 5754 5753 5751 5749 5747 5745 5742 5740 5737 5735 5732 5729 5726 5722 5719 5716 5712 5709 5705 5702 5698 5694 5690 5686 5682 5678 5674 5671 5667 5663 5659 5656 5652 5649 5646 5642 5639 5636 5633 5630 5627 5624
5750 5749 5747 5745 5743 5741 5739 5736 5734 5731 5728 5725 5722 5719 5716 5712 5709 5706 5702 5698 5694 5690 5686 5682 5678 5674 5670 5666 5662 5659 5655 5652 5648 5645 5642 5638 5635 5632 5629 5627 5624 5621 5617